OK1TOM-6 Weather Reports


time (UTC)temp
C
wind
direction
speed
KPH
gust
KPH
rain 1hr
cm
rain 24hr
cm
rain mn
cm
humidity
%
barometer
mb
20260504213521 13 135 0.0 0.0 0.00 0.00 0.00 69 1014.8
20260504212517 14 135 0.0 0.0 0.00 0.00 0.00 68 1014.9
20260504211614 14 135 0.0 0.0 0.00 0.00 0.00 67 1015.0
20260504210611 14 135 0.0 0.0 0.00 0.00 0.00 66 1015.0
20260504205607 14 135 0.0 0.0 0.00 0.00 0.00 66 1015.1
20260504204604 14 135 0.0 0.0 0.00 0.00 0.00 66 1015.0
20260504203600 13 135 0.0 0.0 0.00 0.00 0.00 67 1015.0
20260504202557 14 135 0.0 0.0 0.00 0.00 0.00 64 1015.1
20260504201554 14 135 0.0 0.0 0.00 0.00 0.00 66 1015.0
20260504200550 15 135 0.0 0.0 0.00 0.00 0.00 65 1015.2
20260504195547 14 135 0.0 0.0 0.00 0.00 0.00 64 1015.2
20260504194543 14 135 0.0 0.0 0.00 0.00 0.00 66 1015.2
20260504193540 14 135 0.0 0.0 0.00 0.00 0.00 66 1015.3
20260504192536 15 135 0.0 0.0 0.00 0.00 0.00 63 1015.3
20260504191533 15 135 0.0 0.0 0.00 0.00 0.00 66 1015.4
20260504190529 15 135 0.0 0.0 0.00 0.00 0.00 61 1015.3
20260504185526 15 135 0.0 0.0 0.00 0.00 0.00 61 1015.3
20260504184522 16 135 0.0 0.0 0.00 0.00 0.00 60 1015.2
20260504183519 16 135 0.0 0.0 0.00 0.00 0.00 60 1015.1
20260504182516 16 135 0.0 0.0 0.00 0.00 0.00 57 1015.1
20260504181613 16 135 0.0 3.2 0.00 0.00 0.00 55 1015.1
20260504180609 17 135 0.0 0.0 0.00 0.00 0.00 56 1015.0
20260504175606 17 135 0.0 0.0 0.00 0.00 0.00 56 1015.0
20260504174602 17 135 0.0 0.0 0.00 0.00 0.00 54 1015.0
20260504173559 18 135 0.0 0.0 0.00 0.00 0.00 53 1014.9
20260504172555 18 135 0.0 0.0 0.00 0.00 0.00 48 1014.9
20260504171552 19 135 0.0 0.0 0.00 0.00 0.00 44 1014.9
20260504170549 20 135 0.0 0.0 0.00 0.00 0.00 42 1015.0
20260504150607 20 158 0.0 0.0 0.00 0.00 0.00 39 1015.6
20260504140547 21 158 0.0 3.2 0.00 0.00 0.00 37 1015.8
20260504130527 21 147 3.2 9.7 0.00 0.00 0.00 37 1016.2
20260504110546 20 113 1.6 6.4 0.00 0.00 0.00 38 1016.8
20260504100525 20 107 1.6 6.4 0.00 0.00 0.00 40 1017.3
20260504081548 17 0 0.0 3.2 0.00 0.00 0.00 49 1017.8
20260504080544 17 338 0.0 0.0 0.00 0.00 0.00 53 1017.8
20260504050542 13 270 0.0 3.2 0.00 0.00 0.00 60 1017.2
20260504045539 13 158 0.0 3.2 0.00 0.00 0.00 59 1017.0
20260504044535 13 191 0.0 3.2 0.00 0.00 0.00 60 1016.9
20260504043532 13 158 1.6 6.4 0.00 0.00 0.00 59 1016.8
20260504042529 13 158 0.0 0.0 0.00 0.00 0.00 59 1016.5
20260504041525 13 158 0.0 3.2 0.00 0.00 0.00 59 1016.6
20260504040522 13 142 0.0 3.2 0.00 0.00 0.00 60 1016.7
20260504035518 12 90 0.0 3.2 0.00 0.00 0.00 66 1016.7
20260504034515 13 90 0.0 0.0 0.00 0.00 0.00 64 1016.7
20260504033612 13 90 0.0 3.2 0.00 0.00 0.00 62 1016.8
20260504032608 12 90 0.0 0.0 0.00 0.00 0.00 68 1016.7
20260504031605 12 90 0.0 0.0 0.00 0.00 0.00 67 1016.6
20260504030601 12 90 0.0 0.0 0.00 0.00 0.00 68 1016.6
20260504025558 12 154 1.6 6.4 0.00 0.00 0.00 63 1016.5
20260504024555 12 180 0.0 0.0 0.00 0.00 0.00 70 1016.2
20260504023551 12 180 0.0 0.0 0.00 0.00 0.00 68 1016.5
20260504022548 12 180 0.0 0.0 0.00 0.00 0.00 65 1016.5
20260504021544 12 180 0.0 0.0 0.00 0.00 0.00 65 1016.5
20260504020541 12 180 0.0 0.0 0.00 0.00 0.00 66 1016.2
20260504015538 12 180 0.0 0.0 0.00 0.00 0.00 67 1016.1
20260504014534 13 180 0.0 0.0 0.00 0.00 0.00 64 1016.3
20260504013531 13 180 0.0 0.0 0.00 0.00 0.00 63 1016.4
20260504012527 13 180 0.0 0.0 0.00 0.00 0.00 63 1016.3
20260504011524 13 180 0.0 0.0 0.00 0.00 0.00 63 1016.3
20260504010520 13 180 0.0 0.0 0.00 0.00 0.00 63 1016.4
20260504005517 12 180 0.0 0.0 0.00 0.00 0.00 63 1016.5
20260504004614 13 180 0.0 0.0 0.00 0.00 0.00 62 1016.5
20260504003610 14 180 0.0 0.0 0.00 0.00 0.00 59 1016.7
20260504002607 14 180 0.0 3.2 0.00 0.00 0.00 54 1016.7
20260504001603 13 180 0.0 0.0 0.00 0.00 0.00 57 1016.7
20260504000600 12 180 0.0 0.0 0.00 0.00 0.00 66 1016.6
20260503235557 12 180 0.0 0.0 0.00 0.00 0.00 68 1016.6
20260503234553 12 180 0.0 0.0 0.00 0.00 0.00 68 1016.5
20260503233550 12 180 0.0 0.0 0.00 0.00 0.00 67 1016.4
20260503232547 12 180 0.0 0.0 0.00 0.00 0.00 66 1016.3
20260503231543 12 180 0.0 0.0 0.00 0.00 0.00 65 1016.3
20260503230540 12 180 0.0 0.0 0.00 0.00 0.00 67 1016.2
20260503225536 11 180 0.0 0.0 0.00 0.00 0.00 68 1016.2
20260503224533 12 180 0.0 0.0 0.00 0.00 0.00 67 1016.2
20260503223529 12 180 0.0 0.0 0.00 0.00 0.00 66 1016.2
20260503222526 12 180 0.0 0.0 0.00 0.00 0.00 66 1016.0
20260503221522 12 180 0.0 0.0 0.00 0.00 0.00 64 1016.0
20260503220519 12 180 0.0 0.0 0.00 0.00 0.00 62 1015.9
20260503215516 12 180 0.0 0.0 0.00 0.00 0.00 62 1015.9
20260503214612 12 180 0.0 0.0 0.00 0.00 0.00 63 1016.0